Terminal Aerodrome Forecast
Issued by NWS

Current Version | Previous Version | Graphics & Text | Print | Product List | Glossary On
Versions: 1 2 3 4 5 6 7 8 9 10 11 12 13 14 15 16 17 18 19
994
FTUS41 KPBZ 050857 AAB
TAFHLG
TAF AMD
KHLG 050857Z 0509/0606 25013G21KT 6SM BR BKN012 OVC025
     FM051200 27010KT P6SM BKN015
     FM051600 29006KT P6SM BKN020
     FM051800 32006KT P6SM BKN050
     FM060200 07004KT P6SM SCT200=

USA.gov is the U.S. government's official web portal to all federal, state and local government web resources and services.